Regional Weather Roundup
Issued by NWS

Home | Current Version | Previous Version | Text Only | Print | Product List | Glossary On
Versions: 1 2 3 4 5 6 7 8 9 10 11 12 13 14 15 16 17 18 19 20 21 22 23 24 25 26 27 28 29 30 31 32 33 34 35 36 37 38 39 40 41 42 43 44 45 46 47 48 49 50
000
ASUS46 KPQR 241910
RWROR

OREGON REGIONAL WEATHER ROUNDUP
NATIONAL WEATHER SERVICE PORTLAND OR
1200 PM PDT SUN MAY 24 2015

NOTE: "FAIR" INDICATES FEW OR NO CLOUDS BELOW 12,000 FEET WITH
NO SIGNIFICANT WEATHER AND/OR OBSTRUCTIONS TO VISIBILITY.

ORZ001>013-242000-
NORTHWEST OREGON


CITY           SKY/WX    TMP DP  RH WIND       PRES   REMARKS
ASTORIA        CLOUDY    55  49  80 NW8       30.17S
NEWPORT        PTSUNNY   54  50  87 NW15      30.19S
PORTLAND       CLOUDY    58  48  69 VRB5      30.15S
VANCOUVER WA   CLOUDY    58  48  69 W5        30.14F
SCAPPOOSE      CLOUDY    59  50  72 NE5       30.13F
HILLSBORO      CLOUDY    61  49  64 NE6       30.13F
AURORA         CLOUDY    58  49  72 VRB3      30.15S
MCMINNVILLE    CLOUDY    59  49  69 CALM      30.15S
SALEM          CLOUDY    57  49  74 CALM      30.14S
CORVALLIS      CLOUDY    59  48  67 N3        30.16S
EUGENE         CLOUDY    58  50  75 N9        30.14F
$$

ORZ021-028-242000-
SOUTHWEST OREGON


CITY           SKY/WX    TMP DP  RH WIND       PRES   REMARKS
NORTH BEND     SUNNY     61  52  72 N12       30.15F
BROOKINGS      SUNNY     59  56  89 S6        30.04S
ROSEBURG       CLOUDY    65  51  60 N10       30.11S
SEXTON SUMMIT  CLOUDY    48  46  93 N7        30.10S
MEDFORD        CLOUDY    64  48  56 W5        30.07F
$$

ORZ014>016-041-242000-
COLUMBIA GORGE


CITY           SKY/WX    TMP DP  RH WIND       PRES   REMARKS
TROUTDALE      CLOUDY    57  48  72 CALM      30.14S
THE DALLES     SUNNY     69  49  48 NW24      29.98F
$$

ORZ029>031-041-044-049-050-061>064-502-503-505>511-242000-
EASTERN OREGON


CITY           SKY/WX    TMP DP  RH WIND       PRES   REMARKS
REDMOND        SUNNY     66  47  50 NE6       30.02F
BEND           SUNNY     64  45  48 N7        30.03F
PRINEVILLE     SUNNY     66  48  52 VRB6      30.02F
KLAMATH FALLS  SUNNY     66  44  45 VRB3      30.04F
LAKEVIEW       PTSUNNY   63  45  51 SE5       30.06F
HERMISTON      SUNNY     74  49  41 SW9       29.95F
PENDLETON      SUNNY     72  50  45 W9        29.97F
JOHN DAY       SUNNY     66  51  58 SW3       30.01F
MEACHAM        MOSUNNY   65  49  56 VRB3      30.02S
LA GRANDE      SUNNY     72  45  37 N10       29.96S
BAKER CITY     SUNNY     71  48  43 NW18G25   29.96F
BURNS          SUNNY     68  43  40 S8        30.00F
ROME             N/A     69  43  38 W8        29.98F
ONTARIO        SUNNY     76  46  34 CALM      29.91F
$$


USA.gov is the U.S. government's official web portal to all federal, state and local government web resources and services.